Time,TemperatureF,DewpointF,PressureIn,WindDirection,WindDirectionDegrees,WindSpeedMPH,WindSpeedGustMPH,Humidity,HourlyPrecipIn,Conditions,Clouds,dailyrainin,SoftwareType,DateUTC
2013-02-27 00:13:00,43.8,36.0,29.82,SSW,208,1.0,11.0,73,0.00,,,0.00,weatherlink.com 1.10,2013-02-27 05:13:00,
2013-02-27 00:28:00,43.5,36.0,29.83,West,266,0.0,12.0,74,0.00,,,0.00,weatherlink.com 1.10,2013-02-27 05:28:00,
2013-02-27 00:43:00,43.3,36.0,29.83,WSW,249,2.0,8.0,74,0.00,,,0.00,weatherlink.com 1.10,2013-02-27 05:43:00,
2013-02-27 00:58:00,43.2,35.0,29.83,SW,219,0.0,10.0,73,0.00,,,0.00,weatherlink.com 1.10,2013-02-27 05:58:00,
2013-02-27 01:13:00,43.1,35.0,29.84,SW,231,0.0,6.0,72,0.00,,,0.00,weatherlink.com 1.10,2013-02-27 06:13:00,
2013-02-27 01:28:00,43.2,34.0,29.84,WNW,285,1.0,10.0,71,0.00,,,0.00,weatherlink.com 1.10,2013-02-27 06:28:00,
2013-02-27 01:44:00,43.0,35.0,29.84,SSW,212,1.0,6.0,72,0.00,,,0.00,weatherlink.com 1.10,2013-02-27 06:44:00,
2013-02-27 01:58:00,43.0,35.0,29.84,ENE,70,0.0,6.0,72,0.00,,,0.00,weatherlink.com 1.10,2013-02-27 06:58:00,
2013-02-27 02:13:00,42.9,34.0,29.84,SSW,207,8.0,8.0,72,0.00,,,0.00,weatherlink.com 1.10,2013-02-27 07:13:00,
2013-02-27 02:28:00,42.8,35.0,29.84,West,268,0.0,6.0,73,0.00,,,0.00,weatherlink.com 1.10,2013-02-27 07:28:00,
2013-02-27 02:43:00,42.7,35.0,29.83,South,172,3.0,8.0,73,0.00,,,0.00,weatherlink.com 1.10,2013-02-27 07:43:00,
2013-02-27 02:58:00,42.7,35.0,29.84,South,181,1.0,6.0,74,0.00,,,0.00,weatherlink.com 1.10,2013-02-27 07:58:00,
2013-02-27 03:13:00,42.5,35.0,29.84,East,89,0.0,9.0,74,0.00,,,0.00,weatherlink.com 1.10,2013-02-27 08:13:00,
2013-02-27 03:28:00,42.3,35.0,29.84,NNE,30,0.0,6.0,76,0.00,,,0.00,weatherlink.com 1.10,2013-02-27 08:28:00,
2013-02-27 03:43:00,42.1,35.0,29.85,West,278,0.0,-999.0,76,-99.99,,,0.00,weatherlink.com 1.10,2013-02-27 08:43:00,
2013-02-27 03:58:00,41.9,35.0,29.85,NNE,32,2.0,8.0,76,0.00,,,0.00,weatherlink.com 1.10,2013-02-27 08:58:00,
2013-02-27 04:13:00,41.8,34.0,29.85,ENE,75,1.0,7.0,75,0.00,,,0.00,weatherlink.com 1.10,2013-02-27 09:13:00,
2013-02-27 04:28:00,41.8,34.0,29.85,NW,325,1.0,7.0,74,0.00,,,0.00,weatherlink.com 1.10,2013-02-27 09:28:00,
2013-02-27 04:43:00,41.8,34.0,29.86,NW,306,0.0,8.0,74,0.00,,,0.00,weatherlink.com 1.10,2013-02-27 09:43:00,
2013-02-27 04:58:00,41.6,34.0,29.86,WNW,300,1.0,6.0,75,0.00,,,0.00,weatherlink.com 1.10,2013-02-27 09:58:00,
2013-02-27 05:13:00,41.5,34.0,29.87,SW,236,0.0,8.0,75,0.00,,,0.00,weatherlink.com 1.10,2013-02-27 10:13:00,
2013-02-27 05:28:00,41.5,34.0,29.87,East,92,2.0,7.0,75,0.00,,,0.00,weatherlink.com 1.10,2013-02-27 10:28:00,
2013-02-27 05:43:00,41.5,34.0,29.86,NNE,23,0.0,6.0,75,0.00,,,0.00,weatherlink.com 1.10,2013-02-27 10:43:00,
2013-02-27 05:58:00,41.5,34.0,29.87,ENE,68,0.0,5.0,74,0.00,,,0.00,weatherlink.com 1.10,2013-02-27 10:58:00,
2013-02-27 06:13:00,41.4,34.0,29.87,NE,53,0.0,3.0,75,0.00,,,0.00,weatherlink.com 1.10,2013-02-27 11:13:00,
2013-02-27 06:28:00,41.4,34.0,29.88,SE,135,0.0,7.0,74,0.00,,,0.00,weatherlink.com 1.10,2013-02-27 11:28:00,
2013-02-27 06:43:00,41.3,34.0,29.88,NNE,32,1.0,3.0,74,0.00,,,0.00,weatherlink.com 1.10,2013-02-27 11:43:00,
2013-02-27 06:58:00,41.3,34.0,29.87,North,8,0.0,5.0,75,0.00,,,0.00,weatherlink.com 1.10,2013-02-27 11:58:00,
2013-02-27 07:13:00,41.2,34.0,29.88,WSW,258,0.0,4.0,75,0.00,,,0.00,weatherlink.com 1.10,2013-02-27 12:13:00,
2013-02-27 07:28:00,41.2,34.0,29.88,WSW,255,0.0,1.0,76,0.00,,,0.00,weatherlink.com 1.10,2013-02-27 12:28:00,
2013-02-27 07:43:00,41.3,34.0,29.88,NNW,341,0.0,5.0,75,0.00,,,0.00,weatherlink.com 1.10,2013-02-27 12:43:00,
2013-02-27 07:58:00,41.4,34.0,29.89,NNE,14,0.0,4.0,75,0.00,,,0.00,weatherlink.com 1.10,2013-02-27 12:58:00,
2013-02-27 08:14:00,41.6,34.0,29.89,NNE,14,0.0,5.0,74,0.00,,,0.00,weatherlink.com 1.10,2013-02-27 13:14:00,
2013-02-27 08:29:00,41.8,33.0,29.91,NW,316,0.0,5.0,72,0.00,,,0.00,weatherlink.com 1.10,2013-02-27 13:29:00,
2013-02-27 08:44:00,42.0,33.0,29.92,WSW,245,0.0,6.0,70,0.00,,,0.00,weatherlink.com 1.10,2013-02-27 13:44:00,
2013-02-27 08:59:00,42.3,33.0,29.93,SSE,152,2.0,10.0,70,0.00,,,0.00,weatherlink.com 1.10,2013-02-27 13:59:00,
2013-02-27 09:14:00,42.4,33.0,29.93,ENE,63,4.0,8.0,69,0.00,,,0.00,weatherlink.com 1.10,2013-02-27 14:14:00,
2013-02-27 09:29:00,42.5,33.0,29.93,South,174,3.0,9.0,68,0.00,,,0.00,weatherlink.com 1.10,2013-02-27 14:29:00,
2013-02-27 09:44:00,42.9,33.0,29.93,NW,323,0.0,6.0,68,0.00,,,0.00,weatherlink.com 1.10,2013-02-27 14:44:00,
2013-02-27 09:59:00,43.1,33.0,29.93,NE,49,2.0,8.0,67,0.00,,,0.00,weatherlink.com 1.10,2013-02-27 14:59:00,
2013-02-27 10:14:00,43.6,33.0,29.93,East,96,1.0,8.0,67,0.00,,,0.00,weatherlink.com 1.10,2013-02-27 15:14:00,
2013-02-27 10:29:00,44.3,34.0,29.93,WNW,300,0.0,5.0,66,0.00,,,0.00,weatherlink.com 1.10,2013-02-27 15:29:00,
2013-02-27 10:44:00,45.6,34.0,29.93,East,89,1.0,6.0,64,0.00,,,0.00,weatherlink.com 1.10,2013-02-27 15:44:00,
2013-02-27 10:59:00,46.1,34.0,29.93,North,352,2.0,6.0,64,0.00,,,0.00,weatherlink.com 1.10,2013-02-27 15:59:00,
2013-02-27 11:14:00,46.4,34.0,29.93,WNW,302,1.0,5.0,62,0.00,,,0.00,weatherlink.com 1.10,2013-02-27 16:14:00,
2013-02-27 11:29:00,47.6,34.0,29.93,East,97,1.0,6.0,60,0.00,,,0.00,weatherlink.com 1.10,2013-02-27 16:29:00,
2013-02-27 11:44:00,49.0,35.0,29.93,East,79,1.0,5.0,59,0.00,,,0.00,weatherlink.com 1.10,2013-02-27 16:44:00,
2013-02-27 11:59:00,49.7,35.0,29.93,NNE,23,1.0,6.0,57,0.00,,,0.00,weatherlink.com 1.10,2013-02-27 16:59:00,
2013-02-27 12:14:00,49.9,35.0,29.92,NNE,27,0.0,13.0,57,0.00,,,0.00,weatherlink.com 1.10,2013-02-27 17:14:00,
2013-02-27 12:29:00,51.2,35.0,29.91,NNE,26,0.0,8.0,55,0.00,,,0.00,weatherlink.com 1.10,2013-02-27 17:29:00,
2013-02-27 12:44:00,53.3,36.0,29.91,SSW,209,0.0,6.0,53,0.00,,,0.00,weatherlink.com 1.10,2013-02-27 17:44:00,
2013-02-27 12:59:00,53.9,37.0,29.90,NE,44,1.0,6.0,53,0.00,,,0.00,weatherlink.com 1.10,2013-02-27 17:59:00,
2013-02-27 13:14:00,55.1,37.0,29.90,NNE,31,1.0,10.0,51,0.00,,,0.00,weatherlink.com 1.10,2013-02-27 18:14:00,
2013-02-27 13:29:00,55.1,36.0,29.89,North,11,1.0,12.0,49,0.00,,,0.00,weatherlink.com 1.10,2013-02-27 18:29:00,
2013-02-27 13:44:00,56.0,36.0,29.88,ESE,113,3.0,9.0,48,0.00,,,0.00,weatherlink.com 1.10,2013-02-27 18:44:00,
2013-02-27 13:59:00,57.0,37.0,29.88,NNE,17,0.0,6.0,47,0.00,,,0.00,weatherlink.com 1.10,2013-02-27 18:59:00,
2013-02-27 14:15:00,58.2,38.0,29.87,ENE,69,3.0,7.0,47,0.00,,,0.00,weatherlink.com 1.10,2013-02-27 19:15:00,
2013-02-27 14:30:00,58.9,36.0,29.86,South,169,1.0,9.0,43,0.00,,,0.00,weatherlink.com 1.10,2013-02-27 19:30:00,
2013-02-27 14:45:00,58.4,36.0,29.85,NNE,21,0.0,8.0,43,0.00,,,0.00,weatherlink.com 1.10,2013-02-27 19:45:00,
2013-02-27 15:00:00,59.6,37.0,29.85,WNW,296,2.0,8.0,43,0.00,,,0.00,weatherlink.com 1.10,2013-02-27 20:00:00,
2013-02-27 15:15:00,60.7,37.0,29.85,WSW,257,5.0,8.0,41,0.00,,,0.00,weatherlink.com 1.10,2013-02-27 20:15:00,
2013-02-27 15:30:00,60.1,36.0,29.85,NNW,333,4.0,7.0,40,0.00,,,0.00,weatherlink.com 1.10,2013-02-27 20:30:00,
2013-02-27 15:46:00,60.0,35.0,29.84,North,350,3.0,9.0,40,0.00,,,0.00,weatherlink.com 1.10,2013-02-27 20:46:00,
2013-02-27 16:00:00,61.0,35.0,29.84,SSW,194,1.0,5.0,38,0.00,,,0.00,weatherlink.com 1.10,2013-02-27 21:00:00,
2013-02-27 16:15:00,60.3,36.0,29.83,ENE,69,2.0,12.0,40,0.00,,,0.00,weatherlink.com 1.10,2013-02-27 21:15:00,
2013-02-27 16:30:00,60.4,35.0,29.83,SW,228,0.0,9.0,39,0.00,,,0.00,weatherlink.com 1.10,2013-02-27 21:30:00,
2013-02-27 16:45:00,60.8,36.0,29.83,West,270,0.0,11.0,40,0.00,,,0.00,weatherlink.com 1.10,2013-02-27 21:45:00,
2013-02-27 17:00:00,60.0,35.0,29.83,SW,226,5.0,10.0,40,0.00,,,0.00,weatherlink.com 1.10,2013-02-27 22:00:00,
2013-02-27 17:15:00,59.3,36.0,29.83,SW,228,0.0,10.0,42,0.00,,,0.00,weatherlink.com 1.10,2013-02-27 22:15:00,
2013-02-27 17:30:00,58.8,35.0,29.84,West,260,0.0,10.0,41,0.00,,,0.00,weatherlink.com 1.10,2013-02-27 22:30:00,
2013-02-27 17:45:00,58.3,34.0,29.85,SW,232,6.0,12.0,41,0.00,,,0.00,weatherlink.com 1.10,2013-02-27 22:45:00,
2013-02-27 18:00:00,57.4,34.0,29.84,NNE,22,4.0,8.0,42,0.00,,,0.00,weatherlink.com 1.10,2013-02-27 23:00:00,
2013-02-27 18:15:00,55.8,34.0,29.84,NW,319,2.0,8.0,44,0.00,,,0.00,weatherlink.com 1.10,2013-02-27 23:15:00,
2013-02-27 18:30:00,55.0,34.0,29.85,SSW,207,0.0,8.0,46,0.00,,,0.00,weatherlink.com 1.10,2013-02-27 23:30:00,
2013-02-27 18:45:00,54.1,35.0,29.85,NW,315,0.0,4.0,48,0.00,,,0.00,weatherlink.com 1.10,2013-02-27 23:45:00,
2013-02-27 19:00:00,53.4,35.0,29.85,West,267,0.0,2.0,50,0.00,,,0.00,weatherlink.com 1.10,2013-02-28 00:00:00,
2013-02-27 19:15:00,52.6,35.0,29.86,East,99,0.0,2.0,52,0.00,,,0.00,weatherlink.com 1.10,2013-02-28 00:15:00,
2013-02-27 19:30:00,52.0,35.0,29.86,WSW,245,0.0,2.0,53,0.00,,,0.00,weatherlink.com 1.10,2013-02-28 00:30:00,
2013-02-27 19:45:00,51.8,35.0,29.86,WSW,253,0.0,1.0,53,0.00,,,0.00,weatherlink.com 1.10,2013-02-28 00:45:00,
2013-02-27 20:00:00,51.4,35.0,29.87,NNW,345,0.0,4.0,54,0.00,,,0.00,weatherlink.com 1.10,2013-02-28 01:00:00,
2013-02-27 20:15:00,51.7,35.0,29.87,WNW,285,0.0,5.0,54,0.00,,,0.00,weatherlink.com 1.10,2013-02-28 01:15:00,
2013-02-27 20:30:00,52.0,36.0,29.87,West,260,0.0,4.0,54,0.00,,,0.00,weatherlink.com 1.10,2013-02-28 01:30:00,
2013-02-27 20:45:00,52.0,36.0,29.87,SW,233,0.0,3.0,54,0.00,,,0.00,weatherlink.com 1.10,2013-02-28 01:45:00,
2013-02-27 21:00:00,52.0,36.0,29.87,SW,221,0.0,3.0,54,0.00,,,0.00,weatherlink.com 1.10,2013-02-28 02:00:00,
2013-02-27 21:15:00,52.0,36.0,29.87,SW,228,0.0,2.0,54,0.00,,,0.00,weatherlink.com 1.10,2013-02-28 02:15:00,
2013-02-27 21:30:00,51.8,36.0,29.87,ENE,65,0.0,2.0,55,0.00,,,0.00,weatherlink.com 1.10,2013-02-28 02:30:00,
2013-02-27 21:45:00,51.7,36.0,29.87,SSW,197,0.0,4.0,55,0.00,,,0.00,weatherlink.com 1.10,2013-02-28 02:45:00,
2013-02-27 22:00:00,51.6,36.0,29.87,SSW,193,1.0,13.0,55,0.00,,,0.00,weatherlink.com 1.10,2013-02-28 03:00:00,
2013-02-27 22:15:00,51.3,36.0,29.87,WSW,238,1.0,7.0,56,0.00,,,0.00,weatherlink.com 1.10,2013-02-28 03:15:00,
2013-02-27 22:30:00,50.9,36.0,29.87,SW,226,0.0,2.0,57,0.00,,,0.00,weatherlink.com 1.10,2013-02-28 03:30:00,
2013-02-27 22:45:00,50.9,35.0,29.87,NNE,18,0.0,6.0,56,0.00,,,0.00,weatherlink.com 1.10,2013-02-28 03:45:00,
2013-02-27 23:00:00,50.9,35.0,29.87,NE,52,2.0,5.0,56,0.00,,,0.00,weatherlink.com 1.10,2013-02-28 04:00:00,
2013-02-27 23:30:00,49.5,37.0,29.88,South,174,3.0,11.0,62,0.00,,,0.00,weatherlink.com 1.10,2013-02-28 04:30:00,
2013-02-27 23:45:00,48.5,37.0,29.88,NNW,336,0.0,6.0,65,0.00,,,0.00,weatherlink.com 1.10,2013-02-28 04:45:00,